Location: ??????
(41.3164°N, 22.6615°E)
Time: 17:17:51
(UTC+00:00)

Cosmos 1300 - Pass Details

Date: 05 June 2022
Orbit: 506 x 508 km, 82.5° (Epoch: 01 July)

Event Time Altitude Azimuth Distance (km) Brightness Sun altitude
Rises 21:44:53 0° 358° (N) 2,619 7.6 -25.3°
Reaches altitude 10° 21:47:05 10° 4° (N) 1,728 6.3 -25.4°
Enters shadow 21:49:50 37° 38° (NE) 797 3.9 -25.5°
